Retour au catalogue

ORBCOMM FM 31

ActifCommunicationsLEO
NORAD 25981·PAYLOAD·🇺🇸 United States

Lancé Dec 4, 1999 depuis Cape Canaveral Space Force Station

Loading…

Prochains Passages (prochaines 24 heures)

TLE

FraisSource: Space-Track

Époque: Sep 14, 2026, 08:09 UTC

1 25981U 99065B   26257.34020867  .00000448  00000-0  19266-3 0  9999
2 25981  45.0221  91.6173 0004225 142.6769 217.4373 14.38172287399366

Suivez ORBCOMM FM 31 en temps réel avec AllMySat

Download on the App Store